Weather History for Huntsville Madison, AL

Change the Weather History Date:

Sunday, May 12, 2013

  Actual Average (KHSV) Record (KHSV)
Temperature  
Mean Temperature 53 °F 69 °F  
Max Temperature 62 °F 80 °F 92 °F (1962)
Min Temperature 44 °F 58 °F 42 °F (1989)
Degree Days  
Heating Degree Days 12 1  
Month to date heating degree days 17  
Since 1 July heating degree days 2991  
Cooling Degree Days 0 5  
Month to date cooling degree days 50  
Year to date cooling degree days 122  
Growing Degree Days 3 (Base 50)    
Moisture  
Dew Point 34 °F    
Average Humidity 49    
Maximum Humidity 94    
Minimum Humidity 22    
Precipitation  
Precipitation 0.00 in 0.17 in 2.75 in (1971)
Month to date precipitation 2.07  
Year to date precipitation 21.33  
Snow  
Snow 0.00 in - - ()
Month to date snowfall  
Since 1 July snowfall  
Snow Depth -    
Sea Level Pressure  
Sea Level Pressure 30.13 in    
Wind  
Wind Speed 5 mph (NNW)    
Max Wind Speed 13 mph    
Max Gust Speed 21 mph    
Visibility 10 miles    
Events      
T = Trace of Precipitation, MM = Missing Value Source: NWS Daily Summary

Daily Weather History Graph

Daily Weather History Graph

Search for Another Location

Airport:

Trip Planner

Search our weather history database for the weather conditions in past years. The results will help you decide how hot, cold, wet, or windy it might be!

Date:

Astronomy

May. 12, 2013 Rise Set
Actual Time 5:45 AM CDT 7:40 PM CDT
Civil Twilight 5:17 AM CDT 8:08 PM CDT
Nautical Twilight 4:43 AM CDT 8:42 PM CDT
Astronomical Twilight 4:07 AM CDT 9:18 PM CDT
Moon 7:41 AM CDT (5/12) 10:06 PM CDT (5/12)
Length of Visible Light 14h 51m
Length of Day
13h 55m
Waxing Crescent, 7% of the Moon is Illuminated
May 12
Waxing Crescent
May 17
First Quarter
May 24
Full
May 31
Last Quarter
Jun 8
New

Hourly Weather History & Observations

Time (CDT) Temp. Dew Point Humidity Pressure Visibility Wind Dir Wind Speed Gust Speed Precip Events Conditions
12:15 AM 51.8 °F 50.0 °F 94% 30.04 in 7.0 mi Calm Calm - N/A   Clear
12:35 AM 51.8 °F 48.2 °F 88% 30.05 in 4.0 mi Calm Calm - N/A   Clear
12:55 AM 51.8 °F 46.4 °F 82% 30.04 in 4.0 mi Calm Calm - N/A   Scattered Clouds
1:35 AM 51.8 °F 48.2 °F 88% 30.04 in 7.0 mi Calm Calm - N/A   Overcast
1:55 AM 51.8 °F 50.0 °F 94% 30.05 in 7.0 mi Calm Calm - N/A   Overcast
2:15 AM 53.6 °F 50.0 °F 88% 30.05 in 10.0 mi North 6.9 mph - N/A   Overcast
2:35 AM 55.4 °F 50.0 °F 82% 30.05 in 10.0 mi North 9.2 mph - N/A   Overcast
2:55 AM 55.4 °F 46.4 °F 72% 30.06 in 10.0 mi North 5.8 mph - N/A   Overcast
3:15 AM 55.4 °F 46.4 °F 72% 30.06 in 10.0 mi North 9.2 mph - N/A   Overcast
3:35 AM 55.4 °F 42.8 °F 63% 30.07 in 10.0 mi North 11.5 mph - N/A   Overcast
3:55 AM 55.4 °F 35.6 °F 47% 30.07 in 10.0 mi North 11.5 mph 17.3 mph N/A   Overcast
4:35 AM 53.6 °F 33.8 °F 47% 30.08 in 10.0 mi North 11.5 mph 19.6 mph N/A   Mostly Cloudy
4:55 AM 53.6 °F 32.0 °F 44% 30.08 in 10.0 mi North 12.7 mph - N/A   Scattered Clouds
5:15 AM 51.8 °F 32.0 °F 47% 30.09 in 10.0 mi North 12.7 mph 19.6 mph N/A   Clear
5:35 AM 51.8 °F 32.0 °F 47% 30.10 in 10.0 mi North 8.1 mph - N/A   Clear
5:55 AM 50.0 °F 33.8 °F 54% 30.11 in 10.0 mi North 5.8 mph - N/A   Clear
6:15 AM 50.0 °F 35.6 °F 58% 30.12 in 10.0 mi North 5.8 mph - N/A   Clear
6:35 AM 48.2 °F 35.6 °F 62% 30.13 in 10.0 mi North 5.8 mph - N/A   Clear
6:55 AM 50.0 °F 35.6 °F 58% 30.12 in 10.0 mi North 6.9 mph - N/A   Clear
7:15 AM 50.0 °F 35.6 °F 58% 30.13 in 10.0 mi North 5.8 mph - N/A   Clear
7:35 AM 51.8 °F 33.8 °F 50% 30.13 in 10.0 mi North 8.1 mph - N/A   Clear
7:55 AM 51.8 °F 32.0 °F 47% 30.14 in 10.0 mi NNE 5.8 mph - N/A   Clear
8:15 AM 53.6 °F 32.0 °F 44% 30.14 in 10.0 mi NNE 10.4 mph - N/A   Clear
8:35 AM 53.6 °F 30.2 °F 41% 30.14 in 10.0 mi NNE 11.5 mph 17.3 mph N/A   Clear
8:55 AM 53.6 °F 28.4 °F 38% 30.15 in 10.0 mi North 11.5 mph 20.7 mph N/A   Clear
9:15 AM 55.4 °F 28.4 °F 36% 30.16 in 10.0 mi North 12.7 mph - N/A   Clear
9:35 AM 55.4 °F 26.6 °F 33% 30.16 in 10.0 mi North 10.4 mph 16.1 mph N/A   Clear
9:55 AM 55.4 °F 23.0 °F 29% 30.17 in 10.0 mi North 11.5 mph - N/A   Clear
10:35 AM 57.2 °F 28.4 °F 33% 30.17 in 10.0 mi NNW 8.1 mph 17.3 mph N/A   Clear
10:55 AM 57.2 °F 28.4 °F 33% 30.17 in 10.0 mi North 4.6 mph - N/A   Clear
11:15 AM 59.0 °F 30.2 °F 34% 30.17 in 10.0 mi North 9.2 mph - N/A   Clear
11:35 AM 59.0 °F 28.4 °F 31% 30.17 in 10.0 mi North 8.1 mph - N/A   Clear
11:55 AM 59.0 °F 28.4 °F 31% 30.17 in 10.0 mi NNW 9.2 mph - N/A   Clear
12:15 PM 59.0 °F 30.2 °F 34% 30.17 in 10.0 mi North 6.9 mph - N/A   Clear
12:35 PM 59.0 °F 32.0 °F 36% 30.17 in 10.0 mi NW 3.5 mph - N/A   Clear
12:55 PM 60.8 °F 30.2 °F 31% 30.16 in 10.0 mi Calm Calm - N/A   Clear
1:15 PM 60.8 °F 28.4 °F 29% 30.16 in 10.0 mi NNW 8.1 mph - N/A   Clear
1:35 PM 60.8 °F 26.6 °F 27% 30.14 in 10.0 mi NNW 8.1 mph - N/A   Clear
1:55 PM 60.8 °F 28.4 °F 29% 30.14 in 10.0 mi NW 5.8 mph 16.1 mph N/A   Clear
2:15 PM 62.6 °F 28.4 °F 27% 30.13 in 10.0 mi NNW 12.7 mph 16.1 mph N/A   Clear
2:35 PM 62.6 °F 30.2 °F 30% 30.13 in 10.0 mi NNW 6.9 mph - N/A   Clear
2:55 PM 62.6 °F 26.6 °F 26% 30.13 in 10.0 mi NW 9.2 mph - N/A   Clear
3:15 PM 62.6 °F 30.2 °F 30% 30.13 in 10.0 mi WNW 6.9 mph - N/A   Clear
3:35 PM 62.6 °F 26.6 °F 26% 30.13 in 10.0 mi Calm Calm - N/A   Clear
3:55 PM 62.6 °F 28.4 °F 27% 30.13 in 10.0 mi WNW 4.6 mph - N/A   Clear
4:15 PM 62.6 °F 26.6 °F 26% 30.13 in 10.0 mi NNW 9.2 mph - N/A   Clear
4:35 PM 62.6 °F 28.4 °F 27% 30.13 in 10.0 mi North 8.1 mph - N/A   Clear
4:55 PM 62.6 °F 24.8 °F 24% 30.13 in 10.0 mi NW 10.4 mph - N/A   Clear
5:15 PM 62.6 °F 24.8 °F 24% 30.13 in 10.0 mi NNW 11.5 mph - N/A   Clear
5:35 PM 62.6 °F 26.6 °F 26% 30.13 in 10.0 mi NNW 10.4 mph 17.3 mph N/A   Clear
5:55 PM 62.6 °F 23.0 °F 22% 30.13 in 10.0 mi NW 8.1 mph - N/A   Clear
6:15 PM 60.8 °F 24.8 °F 25% 30.14 in 10.0 mi NW 8.1 mph - N/A   Clear
6:35 PM 60.8 °F 28.4 °F 29% 30.13 in 10.0 mi North 6.9 mph - N/A   Clear
6:55 PM 59.0 °F 32.0 °F 36% 30.13 in 10.0 mi NNW 11.5 mph - N/A   Clear
7:15 PM 57.2 °F 32.0 °F 38% 30.13 in 10.0 mi North 5.8 mph - N/A   Clear
7:35 PM 57.2 °F 33.8 °F 41% 30.13 in 10.0 mi North 5.8 mph - N/A   Clear
7:55 PM 55.4 °F 32.0 °F 41% 30.13 in 10.0 mi NNW 5.8 mph - N/A   Clear
8:15 PM 51.8 °F 39.2 °F 62% 30.13 in 10.0 mi Calm Calm - N/A   Clear
8:35 PM 51.8 °F 35.6 °F 54% 30.13 in 10.0 mi Calm Calm - N/A   Clear
8:55 PM 51.8 °F 37.4 °F 58% 30.14 in 10.0 mi Calm Calm - N/A   Clear
9:15 PM 50.0 °F 37.4 °F 62% 30.15 in 10.0 mi Calm Calm - N/A   Clear
9:35 PM 46.4 °F 39.2 °F 76% 30.16 in 10.0 mi Calm Calm - N/A   Clear
9:55 PM 46.4 °F 39.2 °F 76% 30.17 in 10.0 mi Calm Calm - N/A   Clear
10:15 PM 48.2 °F 41.0 °F 76% 30.17 in 10.0 mi Calm Calm - N/A   Clear
10:35 PM 46.4 °F 41.0 °F 81% 30.17 in 10.0 mi Calm Calm - N/A   Clear
10:55 PM 46.4 °F 41.0 °F 81% 30.18 in 10.0 mi Calm Calm - N/A   Clear
11:15 PM 44.6 °F 37.4 °F 76% 30.18 in 10.0 mi Calm Calm - N/A   Clear
11:35 PM 46.4 °F 39.2 °F 76% 30.18 in 10.0 mi Calm Calm - N/A   Clear
11:55 PM 44.6 °F 39.2 °F 81% 30.18 in 10.0 mi Calm Calm - N/A   Clear